Regional Weather Roundup
Issued by NWS

Home | Current Version | Previous Version | Graphics & Text | Print | Product List | Glossary On
Versions: 1 2 3 4 5 6 7 8 9 10 11 12 13 14 15 16 17 18 19 20 21 22 23 24 25 26 27 28 29 30 31 32 33 34 35 36 37 38 39 40 41 42 43 44 45 46 47 48 49 50
000
ASUS43 KLOT 011000
RWRIL

ILLINOIS REGIONAL WEATHER ROUNDUP
NATIONAL WEATHER SERVICE CHICAGO/ROMEOVILLE IL
500 AM CDT WED OCT 01 2014

NOTE: "FAIR" INDICATES FEW OR NO CLOUDS BELOW 12,000 FEET WITH NO
SIGNIFICANT WEATHER AND/OR OBSTRUCTIONS TO VISIBILITY.

* THESE STATIONS ARE NOT UNDER NWS QUALITY CONTROL. THEY ALSO MAY NOT
  REPORT WEATHER SUCH AS PRECIPITATION OR FOG.

ILZ001-002-007-009-015-016-024-011100-
NORTHWEST ILLINOIS

CITY           SKY/WX    TMP DP  RH WIND       PRES   REMARKS
MOLINE         NOT AVBL
$$

ILZ003-004-008-010-011-017-018-011100-
NORTH CENTRAL ILLINOIS

CITY           SKY/WX    TMP DP  RH WIND       PRES   REMARKS
ROCKFORD       PTCLDY    50  47  89 E6        30.01R
$$

ILZ005-006-012>014-019>023-011100-
NORTHEAST ILLINOIS

CITY           SKY/WX    TMP DP  RH WIND       PRES   REMARKS
CHICAGO-OHARE  MOCLDY    54  46  74 SE13      30.00S
CHICAGO-MIDWAY NOT AVBL
AURORA         CLEAR     48  43  82 E3        30.00S
WAUKEGAN       NOT AVBL
DUPAGE AIRPORT CLEAR     50  44  80 SE5       29.99S
WHEELING       CLOUDY    57  47  69 SE9       30.01F
NORTHERLY ISL    N/A     56  47  71 SE10        N/A
$$

LMZ740>746-011100-
SOUTHERN LAKE MICHIGAN

STATION/POSITION SKY/WX   TEMP    WIND        PRES    VSBY  WAVE
                          AIR SEA DIR/SP/G                  HT/PER
                          (F)     (DEG/KT/KT) (MB)    (MI)  (FT/S)
SOUTHERN BUOY              57 62  130/ 10/ 14 1016.4S         2/ 5
WAUKEGAN HARBOR            56     160/ 14/ 16   N/A
HARRISON CRIB              56     160/ 11/ 16   N/A
BURNHAM HARBOR             56     150/  8/ 13   N/A
CALUMET HARBOR             56     110/  5/  9 1015.0R
MICHIGAN CITY              53     100/  3/  4   N/A
MICHIGAN CITY 6N           56 64  120/  6/ 10   N/A           2/ 2
ST. JOSEPH                 56 62  120/  8/ 14   N/A           2/ 2
$$

ILZ025>027-034>036-040-047-049-050-058-095>099-011100-
WEST-CENTRAL ILLINOIS

CITY           SKY/WX    TMP DP  RH WIND       PRES   REMARKS
QUINCY         CLEAR     56  52  86 SE10      29.88S
$$

ILZ028>032-037-038-041>044-048-051>054-059>061-011100-
CENTRAL ILLINOIS

CITY           SKY/WX    TMP DP  RH WIND       PRES   REMARKS
DECATUR        CLEAR     50  48  93 E7        29.96S
PEORIA         MOCLDY    54  46  74 E7        29.96R
SPRINGFIELD    CLEAR     53  49  86 E8        29.94S
TAYLORVILLE    NOT AVBL
$$

ILZ033-039-045-046-055>057-062-063-011100-
EAST-CENTRAL ILLINOIS

CITY           SKY/WX    TMP DP  RH WIND       PRES   REMARKS
MATTOON        CLEAR     51  49  92 E6        29.95S
$$

ILZ079-100>102-011100-
SOUTHWEST ILLINOIS

CITY           SKY/WX    TMP DP  RH WIND       PRES   REMARKS
CAHOKIA*       CLEAR     63  59  87 SE3       29.91R
$$

ILZ064>066-069>071-074>076-080>082-084>086-088>090-092>094-011100-
SOUTH-CENTRAL ILLINOIS

CITY           SKY/WX    TMP DP  RH WIND       PRES   REMARKS
CARBONDALE     FOG       54  52  93 CALM      29.91S VSB 1/4
$$

ILZ067-068-072-073-078-083-087-091-011100-
SOUTHEAST ILLINOIS

CITY           SKY/WX    TMP DP  RH WIND       PRES   REMARKS
LAWRENCEVILLE  CLEAR     56  53  90 NE6       29.96R
ROBINSON*      CLEAR     55  53  95 E5        29.97R
$$

ABBREVIATIONS USED IN REMARKS
   TC - TEMPERATURE IN CELSIUS
  WCI - WIND CHILL INDEX
   HX - HEAT INDEX
  VSB - VISIBILITY
$$




USA.gov is the U.S. government's official web portal to all federal, state and local government web resources and services.